Location: Strawberry
(45.6646°N, 111.9596°W)
Time: 17:17:50
(UTC+00:00)

SR - Pass Details

Date: 06 October 2022
Orbit: 577 x 874 km, 66.7° (Epoch: 05 December)

Event Time Altitude Azimuth Distance (km) Brightness Sun altitude
Rises 04:04:30 0° 221° (SW) 3,432 ? -32.0°
Reaches altitude 10° 04:07:00 10° 225° (SW) 2,513 ? -32.4°
Enters shadow 04:10:03 32° 235° (SW) 1,472 ? -32.9°
